Location: SBMNH
(34.4407°N, 119.7157°W)
Time: 15:54:56
(UTC-07:00)

Tiangong - Pass Details

Date: 17 August 2022
Orbit: 382 x 385 km, 41.5° (Epoch: 07 October)

Event Time Altitude Azimuth Distance (km) Brightness Sun altitude
Rises 21:17:14 0° 273° (W) 2,255 2.8 -18.4°
Reaches altitude 10° 21:19:28 10° 285° (WNW) 1,405 1.8 -18.8°
Maximum altitude 21:22:17 28° 347° (NNW) 753 -0.3 -19.3°
Enters shadow 21:23:44 20° 32° (NNE) 973 -0.1 -19.6°
